Regional Weather Roundup
Issued by NWS

Home | Current Version | Previous Version | Graphics & Text | Print | Product List | Glossary On
Versions: 1 2 3 4 5 6 7 8 9 10 11 12 13 14 15 16 17 18 19 20 21 22 23 24 25 26 27 28 29 30 31 32 33 34 35 36 37 38 39 40 41 42 43 44 45 46 47 48 49 50
000
ASUS45 KABQ 251410
RWRNM
NEW MEXICO REGIONAL WEATHER ROUNDUP
NATIONAL WEATHER SERVICE ALBUQUERQUE NM
800 AM MDT MON MAY 25 2015

NOTE: "FAIR" MEANS FEW OR NO CLOUDS BELOW 12,000 FEET AGL WITH NO
       SIGNIFICANT WEATHER OR OBSTRUCTIONS TO VISION.

      THIS PRODUCT IS RELEASED AS TWO VERSIONS.  ONE VERSION NEAR
      THE TOP OF THE HOUR CONTAINING PRELIMINARY DATA FROM ALBUQUERQUE
      AND OTHER STATIONS.  A FINAL VERSION WITH ADDITIONAL DATA IS
      ISSUED ABOUT 10 MINUTES AFTER THE HOUR.

NMZ501-503-504-510>518-251500-
NORTHWEST PLATEAU/NORTHCENTRAL MOUNTAINS

CITY           SKY/WX    TMP DP  RH WIND       PRES   REMARKS
FARMINGTON     CLOUDY    49  43  80 SE5       29.99R
LOS ALAMOS     SUNNY     49  39  67 N3        30.04S
SANTA FE       SUNNY     52  39  61 CALM      30.00S
TAOS           MOSUNNY   46  36  66 SW6       30.04S
ANGEL FIRE     FAIR      42  36  80 W16       30.05R

$$
NMZ402-403-502-505>509-251500-
WESTCENTRAL MOUNTAINS/SOUTHWEST MOUNTAINS

CITY           SKY/WX    TMP DP  RH WIND       PRES   REMARKS
GALLUP         MOSUNNY   49  40  71 SW8       30.06R
GRANTS         SUNNY     49  39  67 SE5       30.07S
SILVER CITY    SUNNY     55  32  41 N10       30.06S

$$
NMZ407-409-411-412-251500-
SOUTHERN DESERTS

CITY           SKY/WX    TMP DP  RH WIND       PRES   REMARKS
LORDSBURG      FAIR      55  32  41 CALM      30.03R
DEMING         SUNNY     54  32  43 SW6       30.01S
LAS CRUCES     SUNNY     61  36  38 NE3       30.01S
HOLLOMAN AFB   SUNNY     58  39  48 CALM      29.96R
ALAMOGORDO     SUNNY     57  34  41 SE5       29.98R
T OR C         SUNNY     61  35  37 W8        30.00S

$$
NMZ519>523-251500-
CENTRAL VALLEYS/CENTRAL HIGHLANDS

CITY           SKY/WX    TMP DP  RH WIND       PRES   REMARKS
ALBUQUERQUE    PTSUNNY   52  44  74 S6        30.01S
DOUBLE EAGLE   MOSUNNY   52  45  76 SW5       30.03R
MORIARTY ARPT  FAIR      52  41  65 W5        30.03R
CLINES CORNERS SUNNY     49  40  71 W18       30.00S
BELEN          FAIR      55  41  60 SW5       30.02R
SOCORRO        FAIR      56  38  52 MISG      30.01R

$$
NMZ524>526-539-540-251500-
SOUTHCENTRAL MOUNTAINS

CITY           SKY/WX    TMP DP  RH WIND       PRES   REMARKS
RUIDOSO        SUNNY     54  36  50 NW9G17    30.06S

$$
NMZ527>531-251500-
NORTHEAST HIGHLANDS/NORTHEAST PLAINS

CITY           SKY/WX    TMP DP  RH WIND       PRES   REMARKS
LAS VEGAS      SUNNY     52  33  48 SE3       29.97R
RATON          PTSUNNY   50  40  68 NE3       29.93R
CLAYTON        SUNNY     58  43  57 W7        29.86F

$$
NMZ532>537-251500-
EASTCENTRAL PLAINS

CITY           SKY/WX    TMP DP  RH WIND       PRES   REMARKS
TUCUMCARI      SUNNY     62  45  53 W10       29.84F
CANNON AFB     MOSUNNY   55  45  68 SW8       29.91R
CLOVIS AIRPORT PTSUNNY   54  45  71 SW7       29.91R

$$
NMZ028-029-538-251500-
SOUTHEAST PLAINS

CITY           SKY/WX    TMP DP  RH WIND       PRES   REMARKS
ROSWELL        SUNNY     64  41  42 W8        29.88F
ARTESIA        SUNNY     68  37  32 NW3       29.90R
CARLSBAD       SUNNY     70  39  32 VRB5      29.88R
HOBBS          SUNNY     59  46  63 CALM      29.90R


$$



USA.gov is the U.S. government's official web portal to all federal, state and local government web resources and services.